[[{"header":{"parameterUnit":"m.s-1","parameterCategory":1,"la1":30.2991,"la2":30.254,"lo1":-89.0895,"lo2":-89.0444,"dy":0.0017,"dx":0.0017,"nx":28,"ny":28,"refTime":"2025-02-26T09:00:00:Z","depth":0,"parameterNumber":2,"parameterNumberName":"U-component_of_WINDS"},"data":[0,0,0,0,0,0,0,0,0,0,0,0,0,0,0,0,0,0,0,0,0,0,0,0,0,0,0,0,0,0,0,0,0,0,0,0,0,0,0,0,0,0,0,0,0,0,0,0,0,0,0,0,0,0,0,0,0,0,-0.6539,-0.6539,0,-0.6522,-0.6522,-0.6522,-0.6508,-0.6508,-0.6508,-0.6508,-0.6491,-0.649,-0.649,0,0,0,0,0,0,0,0,0,0,0,0,0,-0.6563,-0.6562,-0.6539,-0.6539,-0.6539,-0.6522,-0.6522,-0.6521,-0.6508,-0.6508,-0.6508,-0.6508,-0.6491,-0.649,-0.649,0,0,0,0,0,0,0,0,0,0,0,0,0,-0.655,-0.6562,-0.6539,-0.653,-0.6529,-0.6522,-0.6522,-0.6521,-0.6508,-0.6508,-0.6508,-0.6508,-0.6491,-0.649,-0.649,-0.649,0,0,-0.6488,-0.6488,0,0,0,0,0,0,0,0,-0.655,-0.6549,-0.6532,-0.6531,-0.653,-0.6517,-0.6524,-0.6511,-0.6508,-0.6516,-0.6508,-0.6508,-0.65,-0.6498,-0.6496,-0.649,-0.6489,-0.6488,-0.6488,-0.6488,-0.6488,0,0,0,0,0,0,0,-0.6551,-0.655,-0.6533,-0.6532,-0.653,-0.6528,-0.6526,-0.6521,-0.6509,-0.6516,-0.6515,-0.6513,-0.6499,-0.6496,-0.6495,-0.6489,-0.6488,-0.6488,-0.6488,-0.6487,-0.6482,-0.6483,0,0,0,0,0,0,-0.6554,-0.655,-0.6533,-0.6532,-0.654,-0.6527,-0.6525,-0.6521,-0.6509,-0.6507,-0.6513,-0.6512,-0.6497,-0.6496,-0.6494,-0.6494,-0.6488,-0.6487,-0.6487,-0.6482,-0.6482,-0.6483,0,0,0,0,0,0,-0.6554,-0.6552,-0.6534,-0.6541,-0.6538,-0.6527,-0.6523,-0.6521,-0.6518,-0.6507,-0.6505,-0.6512,-0.6497,-0.6495,-0.6491,-0.6493,-0.6487,-0.6487,-0.6482,-0.6482,-0.6483,-0.6493,0,0,0,0,0,0,-0.6555,-0.6552,-0.6552,-0.6541,-0.6538,-0.6531,-0.6523,-0.6521,-0.6517,-0.6516,-0.6506,-0.6504,-0.6497,-0.6492,-0.6491,-0.6492,-0.6486,-0.6482,-0.6482,-0.6482,-0.6493,-0.6494,-0.6495,0,0,0,0,0,-0.6556,-0.6556,-0.6552,-0.655,-0.6537,-0.6531,-0.6529,-0.6521,-0.6517,-0.6517,-0.651,-0.6504,-0.6494,-0.6492,-0.649,-0.6492,-0.6482,-0.6482,-0.6482,-0.6492,-0.6494,-0.6495,0,0,0,0,0,0,-0.6568,-0.6554,-0.655,-0.6547,-0.654,-0.6529,-0.6528,-0.6523,-0.6517,-0.6516,-0.6506,-0.6504,-0.6501,-0.6496,-0.6495,-0.6492,-0.6487,-0.6487,-0.6495,-0.6496,-0.6497,-0.6498,-0.6486,0,0,0,0,0,-0.657,-0.6566,-0.6554,-0.6552,-0.6549,-0.6539,-0.6536,-0.653,-0.6523,-0.652,-0.6513,-0.6507,-0.6502,-0.6499,-0.6494,-0.6492,-0.649,-0.6493,-0.6494,-0.6495,-0.6495,-0.6493,-0.6494,-0.6484,-0.6484,-0.6484,0,0,-0.6575,-0.6567,-0.6565,-0.6555,-0.6549,-0.6545,-0.6537,-0.6533,-0.653,-0.652,-0.6516,-0.651,-0.6503,-0.65,-0.6499,-0.6496,-0.6497,-0.6495,-0.6496,-0.6495,-0.6494,-0.6495,-0.6496,-0.6484,-0.6484,-0.6484,0,0,-0.6581,-0.6574,-0.6572,-0.6567,-0.6558,-0.6551,-0.6551,-0.6541,-0.6537,-0.6532,-0.6525,-0.6521,-0.6513,-0.6508,-0.6504,-0.6509,-0.6503,-0.6508,-0.6513,-0.6512,-0.6513,-0.6514,-0.6515,-0.6516,-0.6508,-0.6508,-0.6508,0,-0.6588,-0.6581,-0.6572,-0.6568,-0.6564,-0.6555,-0.6553,-0.6548,-0.6538,-0.6536,-0.6533,-0.6523,-0.6517,-0.6513,-0.6514,-0.6511,-0.6511,-0.6509,-0.6514,-0.6514,-0.6515,-0.6516,-0.6517,-0.6509,-0.6509,-0.6509,-0.6509,0,-0.6589,-0.6585,-0.6584,-0.6575,-0.6571,-0.6568,-0.6559,-0.6556,-0.6551,-0.6545,-0.6541,-0.6534,-0.6527,-0.6526,-0.6521,-0.6521,-0.652,-0.6516,-0.651,-0.6517,-0.6518,-0.6518,-0.651,-0.6509,-0.6509,-0.6509,0,0,-0.6602,-0.6588,-0.6588,-0.6583,-0.6573,-0.657,-0.6567,-0.656,-0.6558,-0.6552,-0.6549,-0.6543,-0.6539,-0.6535,-0.6529,-0.6529,-0.6533,-0.6524,-0.6524,-0.6526,-0.6533,-0.6536,-0.6536,-0.6529,-0.6529,-0.6529,-0.6533,0,-0.6606,-0.66,-0.6592,-0.6588,-0.6584,-0.6576,-0.6573,-0.6567,-0.6562,-0.6558,-0.6552,-0.6547,-0.6542,-0.654,-0.6539,-0.6532,-0.6534,-0.6532,-0.6526,-0.6526,-0.6528,-0.6537,-0.654,-0.6544,-0.6534,-0.6534,-0.6534,0,-0.661,-0.6604,-0.66,-0.659,-0.6588,-0.6586,-0.658,-0.6576,-0.6569,-0.6565,-0.6561,-0.6555,-0.6552,-0.6548,-0.6543,-0.6542,-0.6539,-0.6536,-0.6536,-0.6535,-0.653,-0.6535,-0.6545,-0.6545,-0.6534,-0.6534,-0.6534,0,-0.6619,-0.661,-0.6606,-0.6603,-0.6592,-0.6591,-0.6586,-0.6579,-0.6576,-0.657,-0.6568,-0.6563,-0.6559,-0.6555,-0.6548,-0.6546,-0.6544,-0.654,-0.6541,-0.6541,-0.654,-0.654,-0.6549,-0.654,-0.654,-0.654,-0.654,0,-0.6624,-0.6622,-0.661,-0.6608,-0.6605,-0.6597,-0.6595,-0.6589,-0.6583,-0.658,-0.6573,-0.657,-0.6561,-0.6557,-0.6552,-0.6549,-0.6548,-0.6544,-0.6543,-0.6545,-0.6545,-0.6542,-0.6542,-0.654,-0.654,-0.654,-0.654,0,-0.6633,-0.6625,-0.6621,-0.6611,-0.6608,-0.6607,-0.6599,-0.6596,-0.6591,-0.6587,-0.6586,-0.6577,-0.6572,-0.6565,-0.6558,-0.6554,-0.6552,-0.655,-0.6554,-0.6553,-0.6555,-0.6555,-0.6562,-0.6562,-0.6553,-0.6553,-0.6553,0,-0.6636,-0.6634,-0.6624,-0.6622,-0.6617,-0.6613,-0.661,-0.6602,-0.6598,-0.6591,-0.6589,-0.6584,-0.6579,-0.6572,-0.6566,-0.656,-0.6558,-0.6561,-0.6557,-0.6559,-0.6557,-0.6557,-0.6557,-0.6561,-0.6561,-0.6561,-0.6562,0,-0.6643,-0.6639,-0.6634,-0.6628,-0.6624,-0.6619,-0.6614,-0.6612,-0.6603,-0.66,-0.6595,-0.6591,-0.6584,-0.6579,-0.6573,-0.6569,-0.6564,-0.6563,-0.6563,-0.6564,-0.6567,-0.6565,-0.6556,-0.6563,-0.6562,-0.6562,-0.6562,-0.6562,-0.6649,-0.6647,-0.664,-0.6634,-0.663,-0.6625,-0.6622,-0.6616,-0.6612,-0.6606,-0.6601,-0.6597,-0.659,-0.6582,-0.6578,-0.6574,-0.6572,-0.6572,-0.6572,-0.6572,-0.6572,-0.6568,-0.6573,-0.6573,-0.6573,-0.6573,-0.6573,0,-0.6655,-0.665,-0.6645,-0.6638,-0.6634,-0.663,-0.6624,-0.6621,-0.6617,-0.6611,-0.6607,-0.6601,-0.6596,-0.659,-0.6584,-0.6583,-0.658,-0.6582,-0.6581,-0.658,-0.6575,-0.6575,-0.6584,-0.6584,-0.6584,-0.6584,-0.6584,-0.6584,-0.6658,-0.6654,-0.6649,-0.6643,-0.6638,-0.6634,-0.663,-0.6626,-0.6622,-0.6616,-0.6612,-0.6607,-0.6601,-0.6596,-0.6591,-0.6589,-0.6587,-0.6589,-0.6587,-0.6582,-0.6581,-0.658,-0.658,-0.6589,-0.6589,-0.6592,-0.6592,-0.6592]},{"header":{"parameterUnit":"m.s-1","parameterCategory":1,"la1":30.2991,"la2":30.254,"lo1":-89.0895,"lo2":-89.0444,"dy":0.0017,"dx":0.0017,"nx":28,"ny":28,"refTime":"2025-02-26T09:00:00:Z","depth":0,"parameterNumber":3,"parameterNumberName":"V-component_of_WINDS"},"data":[0,0,0,0,0,0,0,0,0,0,0,0,0,0,0,0,0,0,0,0,0,0,0,0,0,0,0,0,0,0,0,0,0,0,0,0,0,0,0,0,0,0,0,0,0,0,0,0,0,0,0,0,0,0,0,0,0,0,2.3773,2.3773,0,2.3744,2.3744,2.3744,2.3689,2.3688,2.3687,2.3686,2.3656,2.3656,2.3657,0,0,0,0,0,0,0,0,0,0,0,0,0,2.3781,2.3782,2.3773,2.3773,2.3773,2.3745,2.3744,2.3744,2.369,2.3688,2.3687,2.3686,2.3656,2.3656,2.3657,0,0,0,0,0,0,0,0,0,0,0,0,0,2.3768,2.3782,2.3773,2.3742,2.3739,2.3745,2.3744,2.3744,2.369,2.3688,2.3687,2.3685,2.3656,2.3656,2.3657,2.369,0,0,2.3658,2.3658,0,0,0,0,0,0,0,0,2.3769,2.3768,2.3747,2.3744,2.3741,2.3719,2.3736,2.3726,2.369,2.3709,2.3686,2.3684,2.3678,2.3677,2.3675,2.3689,2.3687,2.3658,2.3658,2.3658,2.3658,0,0,0,0,0,0,0,2.377,2.3769,2.3762,2.3747,2.3743,2.373,2.3726,2.3734,2.3703,2.3707,2.3703,2.37,2.3676,2.3675,2.3674,2.3687,2.3658,2.3658,2.3658,2.3658,2.3729,2.373,0,0,0,0,0,0,2.3775,2.377,2.3763,2.3761,2.3751,2.3731,2.3727,2.3728,2.3702,2.3697,2.3702,2.3698,2.3675,2.3673,2.3672,2.3711,2.3658,2.3658,2.3658,2.3727,2.3729,2.3731,0,0,0,0,0,0,2.3776,2.3775,2.3764,2.3764,2.3762,2.3732,2.3734,2.3728,2.3726,2.3698,2.3693,2.3706,2.3674,2.3672,2.3687,2.371,2.3658,2.3658,2.3725,2.3728,2.373,2.3789,0,0,0,0,0,0,2.3776,2.3776,2.3788,2.3765,2.3762,2.3779,2.3735,2.3728,2.3727,2.3722,2.3701,2.3696,2.3672,2.3686,2.3687,2.3709,2.3659,2.3723,2.3726,2.3729,2.3785,2.3793,2.38,0,0,0,0,0,2.3777,2.3805,2.3789,2.3788,2.3777,2.378,2.3778,2.3751,2.3729,2.3741,2.3724,2.3696,2.3707,2.3688,2.3688,2.3711,2.3721,2.3725,2.3729,2.3781,2.3792,2.38,0,0,0,0,0,0,2.3831,2.3802,2.3783,2.3805,2.3796,2.3771,2.3786,2.3762,2.3759,2.3754,2.372,2.3716,2.3735,2.3724,2.3704,2.3743,2.371,2.3714,2.375,2.3759,2.3767,2.377,2.3659,0,0,0,0,0,2.3846,2.3851,2.3825,2.3847,2.3843,2.3815,2.3816,2.3796,2.3784,2.378,2.3763,2.3753,2.3754,2.3756,2.3755,2.3783,2.3778,2.3798,2.3806,2.3813,2.3817,2.3832,2.3841,2.3744,2.3744,2.3743,0,0,2.3876,2.3861,2.3866,2.3857,2.3848,2.3854,2.3812,2.3821,2.3825,2.3781,2.3794,2.3782,2.3769,2.379,2.3799,2.3782,2.3843,2.3817,2.3823,2.3824,2.3837,2.3847,2.3855,2.3746,2.3746,2.3745,0,0,2.3935,2.3923,2.3941,2.3933,2.3919,2.39,2.3905,2.3883,2.3874,2.3887,2.3854,2.3859,2.3861,2.3854,2.385,2.3907,2.3883,2.3908,2.3949,2.3964,2.3972,2.3979,2.4001,2.4009,2.3912,2.3912,2.3912,0,2.3975,2.3983,2.3953,2.3964,2.3962,2.3922,2.3941,2.3934,2.392,2.392,2.39,2.3904,2.3892,2.3912,2.3926,2.3924,2.3929,2.3911,2.3974,2.398,2.3986,2.4007,2.4015,2.3915,2.3915,2.3915,2.3914,0,2.4033,2.404,2.4056,2.4045,2.4044,2.4059,2.4031,2.4034,2.4014,2.3998,2.4013,2.3997,2.3993,2.3996,2.3976,2.4014,2.4004,2.398,2.3946,2.3999,2.4018,2.4026,2.392,2.3919,2.3918,2.3917,0,0,2.4127,2.4099,2.4106,2.4101,2.4083,2.4087,2.41,2.4097,2.4101,2.4093,2.4104,2.4108,2.4085,2.4081,2.406,2.4074,2.4122,2.4048,2.4047,2.4064,2.4165,2.4185,2.4195,2.4105,2.4107,2.4108,2.4167,0,2.4183,2.4204,2.4178,2.4205,2.4211,2.4174,2.4186,2.4176,2.4162,2.4165,2.4148,2.4152,2.4121,2.4119,2.4131,2.4114,2.4143,2.4109,2.4116,2.4117,2.4123,2.4204,2.4225,2.4281,2.4174,2.4175,2.4176,0,2.4252,2.4248,2.4276,2.4258,2.4259,2.427,2.4266,2.4269,2.4258,2.4246,2.4243,2.4218,2.423,2.4196,2.4213,2.4191,2.4193,2.4185,2.4186,2.4187,2.4151,2.4209,2.4298,2.4308,2.4187,2.4186,2.4185,0,2.4319,2.4321,2.4338,2.4335,2.4313,2.4322,2.4314,2.4301,2.4301,2.4297,2.4297,2.4294,2.4294,2.4292,2.4268,2.4245,2.4288,2.4252,2.428,2.4281,2.4292,2.4292,2.4385,2.429,2.429,2.429,2.429,0,2.4386,2.4405,2.4369,2.438,2.44,2.437,2.4391,2.4378,2.4367,2.4376,2.4343,2.4351,2.4317,2.4322,2.4303,2.4321,2.432,2.4312,2.4307,2.4316,2.4317,2.4317,2.4314,2.4292,2.4292,2.4291,2.4291,0,2.4465,2.4442,2.4459,2.4437,2.4432,2.4448,2.443,2.4439,2.4422,2.4434,2.4434,2.4408,2.4413,2.4387,2.4387,2.4374,2.4402,2.4389,2.4407,2.4403,2.4433,2.4432,2.4531,2.4543,2.4439,2.444,2.4441,0,2.4511,2.4524,2.4505,2.4508,2.4501,2.4507,2.4507,2.4478,2.4479,2.4468,2.448,2.4481,2.4481,2.449,2.4471,2.4471,2.4459,2.4494,2.4459,2.4468,2.4462,2.4462,2.4464,2.4502,2.4503,2.4504,2.4505,0,2.4594,2.4581,2.4583,2.4582,2.4583,2.458,2.4575,2.4579,2.4547,2.4551,2.4556,2.4556,2.4556,2.4558,2.4555,2.4546,2.4521,2.4516,2.4523,2.4533,2.4543,2.454,2.4429,2.4514,2.4513,2.4513,2.4512,2.4512,2.4659,2.467,2.4658,2.4662,2.4655,2.4651,2.4659,2.4644,2.4647,2.4645,2.4627,2.4636,2.4625,2.4617,2.4611,2.4617,2.4601,2.461,2.4613,2.4616,2.4623,2.4541,2.4616,2.4616,2.4616,2.4615,2.4615,0,2.4742,2.4732,2.4736,2.473,2.4733,2.4709,2.4702,2.4707,2.4714,2.4706,2.4707,2.4713,2.4716,2.4697,2.4698,2.4706,2.4695,2.4708,2.4708,2.4706,2.4636,2.4631,2.4717,2.4717,2.4717,2.4717,2.4717,2.4717,2.4786,2.4804,2.4791,2.4806,2.4796,2.4804,2.4803,2.4799,2.4793,2.4801,2.4803,2.4791,2.4779,2.4779,2.4781,2.4775,2.4778,2.4795,2.4786,2.4721,2.4711,2.4702,2.4697,2.4795,2.4795,2.4855,2.4856,2.4856]}]]